Simultaneous Nadir Overpasses (SNOs) Predictions

Prediction of SNOs between GOES-14 and NPP Satellite Orbit:

Table of predicted SNOs for the next 14.0 days since TLE Epoch: 10/26/2024
Index Date Time (GOES-14) GOES-14 Lat,Lon NPP Lat,Lon Distance(km) Time Diff (sec)
1 10/26/2024 20:23:16 0.08,-108.55 0.98,-104.44 468.40 80
2 10/28/2024 08:45:06 -0.07,-108.61 0.17,-109.72 125.68 80
3 10/29/2024 08:23:41 -0.08,-108.62 -0.83,-105.19 390.53 80
4 10/30/2024 20:45:38 0.07,-108.56 -0.38,-110.48 219.65 80
5 10/31/2024 20:29:34 0.07,-108.57 0.68,-105.97 297.03 80
6 11/02/2024 08:51:22 -0.06,-108.63 0.50,-111.24 296.35 80
7 11/03/2024 08:29:58 -0.06,-108.63 -0.51,-106.71 219.65 80
8 11/04/2024 20:54:33 0.05,-108.56 -0.74,-111.99 391.71 80
9 11/05/2024 20:35:49 0.05,-108.56 0.28,-107.46 124.41 80
10 11/07/2024 08:57:37 -0.04,-108.62 0.87,-112.74 468.94 80
11 11/08/2024 08:36:13 -0.05,-108.62 -0.16,-108.21 46.67 80
